Wind_Speed
4 3 2 2 1 0 1 2 3 4 5 6 8 9 9 10 12 12 10 8 8 8 7 6 7 9 12 8 7 10 6 7 11 7 5 7 3 2 7 9 8 6 7 6 9
5 4 3 2 2 2 1 0 2 3 5 6 8 10 11 11 12 13 12 10 10 8 7 7 6 9 3 2 17 5 5 7 10 8 4 9 5 7 11 17 13 6 7 8 10
6 5 4 3 2 1 1 1 1 2 3 4 7 11 12 13 14 14 14 13 10 8 8 9 10 7 4 10 11 3 11 6 4 8 7 8 6 3 10 14 14 12 4 10 11
9 7 5 4 3 2 0 1 2 2 3 4 5 10 14 15 13 17 17 16 13 11 9 10 12 7 1 11 10 12 5 7 6 6 10 8 7 1 6 8 14 9 6 8 11
9 8 6 4 3 3 2 0 1 2 3 4 4 9 15 16 13 19 19 18 16 14 11 9 8 5 7 14 16 11 7 3 6 8 11 8 5 3 2 6 12 9 5 8 10
8 9 8 6 5 4 2 1 0 1 2 4 6 8 15 16 13 18 20 20 19 17 14 12 8 5 9 14 6 8 3 5 8 6 12 7 7 6 6 5 10 7 6 11 11
8 8 7 6 4 3 4 2 1 2 3 4 7 9 16 17 13 17 20 21 22 22 18 15 10 8 13 13 8 9 11 9 10 10 15 13 12 10 7 3 6 8 6 9 16
9 8 7 6 5 4 3 2 1 1 3 6 8 9 13 15 13 13 19 22 24 26 22 18 14 11 12 10 9 9 8 4 8 3 12 15 16 14 9 6 3 7 3 9 14
6 6 5 5 5 4 3 1 1 1 3 6 9 11 12 16 16 14 18 23 26 27 25 22 17 13 12 12 10 13 9 5 6 8 7 15 12 16 14 10 2 3 4 4 11
7 9 7 3 3 2 2 2 1 0 3 6 9 10 11 18 17 17 19 25 28 29 26 25 21 16 12 16 11 12 9 5 9 9 12 15 7 9 16 12 4 2 1 1 4
10 11 10 6 2 1 1 2 3 1 5 5 9 7 11 13 17 18 20 25 28 29 27 27 25 18 12 13 6 8 3 4 1 2 11 19 17 14 18 19 14 10 4 1 5
9 11 10 9 5 2 2 3 3 1 4 6 7 7 7 10 14 18 21 25 26 27 27 25 25 21 20 14 13 10 5 5 9 11 10 12 11 9 13 15 15 11 10 3 5
10 10 10 8 7 5 3 3 2 1 3 7 10 7 7 7 11 17 20 23 24 24 24 24 16 23 23 19 18 16 11 7 8 10 13 9 12 14 15 15 19 16 16 14 6
12 10 10 7 5 4 3 2 2 2 3 4 9 7 6 7 8 14 18 19 20 20 20 19 22 18 24 23 20 20 15 7 12 11 10 14 7 14 16 16 22 17 18 18 12
12 11 9 7 4 4 3 1 1 3 2 6 8 6 8 8 7 11 18 19 16 15 18 11 13 20 18 24 20 22 16 9 13 17 16 12 8 8 9 14 18 16 12 19 13
11 10 10 8 6 5 5 3 5 3 2 7 8 5 11 12 9 11 16 19 15 15 17 18 13 15 19 13 13 16 12 10 10 21 8 16 12 10 6 15 14 14 17 19 19
12 10 10 9 7 7 7 7 4 4 10 8 7 7 8 13 14 15 14 17 14 14 18 17 20 18 14 16 14 14 12 4 1 3 6 15 12 21 15 11 16 8 8 13 22
15 12 11 9 8 8 9 11 6 6 14 8 10 12 11 14 16 16 16 15 16 13 6 11 9 21 19 18 12 16 16 8 6 4 6 12 9 11 14 12 12 12 18 14 15
13 12 10 10 9 11 12 15 5 11 12 7 10 16 15 13 13 16 19 16 13 12 12 5 9 9 17 17 13 15 19 17 9 5 2 8 13 17 20 17 15 12 13 18 19
12 10 9 11 11 13 15 16 10 14 10 10 11 16 19 12 19 16 15 13 18 16 13 10 9 12 9 16 16 14 17 13 9 5 4 6 14 17 17 21 21 21 21 30 27
14 12 11 12 13 14 17 17 16 14 14 10 11 13 15 13 19 23 11 15 11 10 13 21 15 9 9 6 15 20 17 12 12 9 8 3 12 23 25 21 18 18 17 26 26
18 12 11 13 14 14 15 15 16 15 18 16 13 14 15 10 9 12 19 23 10 16 18 18 11 15 15 14 12 15 22 23 18 10 10 15 18 14 18 16 16 15 13 21 28
19 17 16 18 23 21 19 16 15 16 16 16 17 15 16 16 11 10 14 18 20 21 18 21 16 14 5 8 9 10 17 26 25 22 22 14 14 20 25 25 18 18 12 15 26
20 15 14 20 26 26 23 21 20 15 12 14 17 17 15 17 15 9 13 14 20 22 24 23 23 22 18 14 10 12 11 13 19 16 23 27 22 18 21 17 14 12 12 15 23
21 21 20 16 22 29 28 25 20 14 15 9 9 15 15 17 17 17 17 17 18 19 30 30 27 25 22 20 15 12 12 10 12 20 22 23 29 27 20 14 15 13 12 16 19
27 24 24 24 27 25 29 29 30 31 28 24 19 17 15 15 15 15 14 15 20 18 30 34 26 26 26 23 21 19 16 13 11 15 21 24 22 25 19 21 21 18 16 17 17
25 27 28 28 27 30 32 30 31 29 25 23 21 21 19 15 15 14 17 15 17 20 22 32 31 24 25 24 18 16 19 18 17 15 19 27 24 24 22 23 17 11 8 8 9
Wind_Direction
16 14 2 350 12 72 189 206 215 221 214 206 193 191 181 182 177 180 193 176 174 159 147 117 133 113 162 200 190 157 141 161 182 253 238 163 121 74 54 42 57 66 144 187 151
7 8 10 6 3 14 45 188 228 225 224 218 200 194 181 175 179 180 179 176 174 164 145 139 141 124 87 152 166 133 138 135 201 234 204 186 185 34 42 39 38 78 141 158 140
12 8 8 3 10 7 64 196 211 225 234 225 209 194 183 175 173 179 177 177 173 175 156 145 147 155 76 164 181 127 129 74 132 221 220 201 188 299 44 29 35 37 106 142 139
15 10 6 2 2 353 333 190 224 232 226 214 205 192 181 177 174 178 180 177 180 184 162 144 150 168 23 185 161 146 54 109 135 164 192 209 208 24 37 23 18 48 92 129 129
14 18 10 353 350 2 355 270 183 198 207 201 189 182 179 181 179 177 182 177 180 184 160 156 158 144 102 125 150 142 123 131 195 193 184 196 238 280 314 348 11 36 89 117 136
13 13 10 355 350 346 338 352 223 154 173 180 181 180 179 182 183 182 183 178 178 177 160 161 171 131 141 136 109 124 216 186 209 218 200 208 225 242 265 320 359 38 79 127 125
11 7 6 357 355 316 329 330 30 147 156 174 180 180 179 179 177 187 184 181 176 170 167 174 169 140 150 149 119 138 117 97 130 178 199 210 222 246 262 284 4 41 98 138 126
359 1 355 349 350 343 337 340 23 146 168 168 176 181 183 182 175 180 185 183 179 176 178 185 191 167 153 170 161 139 150 153 104 91 225 202 223 224 231 240 9 50 87 146 129
3 357 339 341 355 352 7 354 35 164 177 171 172 172 172 181 186 182 184 182 182 184 185 194 201 205 178 177 176 169 151 198 210 199 206 206 243 247 241 241 268 78 59 141 138
359 4 4 336 350 360 46 24 348 222 145 160 169 163 180 184 186 183 186 186 187 193 192 196 210 208 185 184 189 195 180 240 231 208 180 212 246 289 248 244 246 212 84 59 136
355 359 4 2 351 328 352 61 7 278 168 182 182 189 183 186 192 191 192 194 196 201 201 205 206 215 227 201 153 163 103 207 205 236 228 232 251 270 253 244 233 248 212 147 135
352 350 357 355 354 339 8 34 40 96 151 170 167 173 176 192 195 193 197 197 200 204 209 214 216 213 230 221 215 233 238 282 223 231 249 266 255 236 250 256 247 264 245 218 215
350 342 349 346 347 347 9 18 59 138 157 179 178 179 177 181 187 200 196 203 206 211 214 221 225 219 226 232 227 239 253 287 212 188 213 215 236 260 250 273 253 262 227 239 225
347 332 330 333 332 333 335 39 18 85 110 168 193 192 208 187 184 192 203 208 208 213 219 232 217 220 223 232 231 237 242 245 228 220 219 236 257 258 260 281 259 263 244 227 215
340 320 312 317 300 275 282 14 121 139 52 156 173 170 175 184 193 197 200 210 218 212 208 208 216 221 221 227 230 238 252 276 259 243 232 239 247 302 260 263 249 243 228 191 196
325 313 300 293 270 244 237 223 165 168 197 170 169 179 189 166 167 175 196 209 215 210 213 213 205 202 221 215 214 224 241 256 244 221 224 235 234 304 286 277 269 253 241 216 200
319 311 296 286 265 240 218 203 191 209 171 179 193 205 198 191 179 187 193 195 193 212 226 234 228 224 214 209 214 210 228 169 174 197 209 241 235 256 273 283 295 257 259 226 193
314 310 295 282 261 227 216 197 211 193 174 194 209 208 214 202 201 203 205 202 205 214 211 234 248 235 217 220 222 221 217 196 188 185 209 229 233 254 252 271 261 266 263 237 231
309 305 290 273 250 229 217 206 211 180 191 220 233 211 217 217 209 215 217 216 208 205 222 230 233 229 210 223 219 219 220 226 225 180 193 213 237 249 258 256 250 251 279 256 214
305 300 282 262 242 228 222 217 214 198 200 212 213 205 216 220 211 208 217 230 225 231 237 247 259 221 221 213 223 222 225 210 205 136 206 233 246 253 254 258 266 273 258 248 232
306 295 278 256 237 224 227 228 230 219 217 211 202 207 216 212 216 225 224 228 213 212 234 238 230 237 227 216 231 232 222 216 222 213 164 210 244 248 266 273 287 285 274 229 223
297 288 270 238 231 233 239 242 238 235 233 235 221 219 211 218 243 236 226 236 238 247 242 218 229 242 256 262 266 256 233 232 222 214 214 234 251 247 256 275 293 301 287 240 210
286 270 256 247 246 247 248 246 250 250 236 229 228 228 223 231 257 248 244 239 240 244 242 224 219 228 233 239 250 241 231 232 237 235 231 216 243 237 250 268 280 287 303 252 228
287 277 262 250 250 250 246 249 250 259 251 237 229 233 238 233 233 240 241 240 246 241 231 231 225 226 227 246 232 198 194 207 220 227 241 235 244 249 244 245 259 275 286 266 229
274 273 264 248 246 247 250 250 253 245 229 237 230 238 241 241 238 245 247 244 237 237 228 221 224 232 240 249 237 228 237 242 235 240 243 256 249 250 256 227 227 233 255 269 254
271 264 261 257 247 246 246 254 259 261 262 264 259 243 247 246 243 242 247 240 238 239 226 223 222 230 236 236 235 240 241 245 263 251 244 246 255 242 225 209 213 219 229 256 270
267 266 262 257 253 248 247 247 252 259 261 261 259 257 255 261 261 250 242 231 235 241 238 228 224 221 218 224 225 239 236 248 252 266 256 246 243 235 221 208 206 201 209 234 245
Height
3140 3140 3140 3139 3139 3139 3140 3140 3139 3140 3140 3141 3143 3144 3146 3148 3150 3151 3153 3157 3158 3159 3161 3162 3163 3163 3164 3164 3167 3168 3170 3171 3172 3172 3174 3175 3176 3175 3175 3174 3174 3174 3174 3176 3177
3140 3139 3139 3139 3139 3139 3139 3139 3139 3139 3139 3140 3142 3143 3145 3147 3149 3151 3154 3156 3158 3160 3161 3163 3165 3165 3165 3163 3167 3170 3171 3172 3172 3173 3175 3176 3178 3178 3178 3178 3177 3177 3177 3178 3180
3139 3139 3138 3138 3138 3138 3138 3138 3139 3138 3138 3139 3140 3142 3144 3146 3149 3150 3153 3156 3158 3160 3161 3163 3164 3166 3167 3166 3169 3171 3172 3174 3173 3174 3176 3178 3178 3181 3181 3181 3181 3180 3180 3181 3182
3138 3138 3137 3137 3137 3137 3137 3137 3138 3138 3138 3138 3139 3141 3143 3146 3150 3149 3151 3155 3158 3159 3162 3164 3166 3167 3167 3167 3169 3172 3174 3175 3173 3174 3176 3178 3180 3182 3183 3184 3184 3183 3184 3184 3184
3138 3137 3137 3136 3136 3136 3136 3136 3137 3138 3138 3138 3139 3140 3142 3146 3147 3148 3150 3154 3156 3158 3162 3164 3166 3167 3167 3168 3171 3174 3174 3174 3174 3175 3177 3180 3182 3184 3185 3186 3185 3185 3185 3185 3186
3138 3137 3136 3135 3134 3134 3134 3135 3136 3136 3137 3137 3138 3139 3142 3145 3146 3148 3151 3153 3155 3158 3162 3164 3166 3167 3169 3170 3173 3174 3174 3175 3176 3176 3179 3181 3183 3185 3186 3187 3187 3186 3186 3186 3188
3139 3137 3136 3135 3134 3134 3133 3134 3134 3135 3136 3136 3137 3138 3141 3145 3146 3147 3150 3153 3155 3159 3162 3164 3166 3169 3170 3172 3173 3175 3176 3176 3177 3177 3179 3181 3184 3185 3187 3188 3188 3187 3187 3189 3189
3138 3137 3136 3135 3134 3133 3133 3133 3134 3134 3135 3136 3136 3138 3140 3144 3146 3148 3150 3153 3155 3158 3162 3164 3166 3169 3170 3172 3174 3176 3177 3177 3178 3180 3180 3182 3183 3184 3187 3189 3188 3188 3189 3191 3191
3139 3137 3136 3134 3134 3133 3133 3133 3133 3133 3134 3135 3137 3138 3140 3142 3145 3148 3150 3153 3156 3158 3161 3163 3166 3169 3171 3172 3174 3176 3176 3178 3178 3179 3180 3182 3183 3184 3185 3187 3188 3188 3190 3191 3192
3138 3137 3135 3134 3134 3133 3133 3132 3132 3133 3134 3135 3137 3140 3140 3141 3143 3145 3148 3151 3153 3156 3160 3164 3165 3168 3170 3171 3172 3173 3174 3177 3179 3180 3181 3181 3182 3182 3184 3186 3188 3188 3189 3191 3192
3136 3135 3135 3134 3133 3133 3133 3133 3135 3135 3134 3135 3137 3137 3137 3140 3142 3144 3148 3150 3152 3155 3158 3161 3165 3167 3170 3170 3172 3173 3173 3176 3177 3179 3180 3181 3182 3184 3184 3186 3186 3187 3188 3190 3191
3136 3135 3134 3133 3133 3133 3133 3133 3133 3134 3134 3135 3136 3137 3138 3139 3141 3142 3146 3150 3152 3154 3157 3161 3162 3168 3168 3169 3170 3172 3174 3175 3175 3177 3179 3178 3180 3181 3180 3182 3185 3186 3187 3189 3190
3135 3134 3134 3133 3132 3133 3133 3133 3132 3132 3133 3135 3136 3137 3139 3140 3140 3141 3145 3147 3150 3153 3155 3158 3162 3165 3166 3167 3169 3171 3173 3173 3174 3176 3176 3177 3177 3177 3177 3178 3179 3181 3184 3186 3188
3135 3134 3133 3133 3134 3132 3132 3132 3132 3132 3133 3135 3135 3138 3139 3139 3140 3141 3144 3148 3149 3152 3154 3156 3160 3161 3163 3165 3168 3170 3172 3174 3174 3174 3175 3176 3174 3173 3174 3173 3174 3175 3179 3183 3186
3135 3133 3132 3131 3132 3131 3132 3131 3131 3132 3135 3136 3135 3137 3137 3140 3140 3140 3143 3146 3148 3150 3153 3155 3155 3158 3159 3163 3166 3169 3170 3172 3173 3174 3174 3175 3176 3169 3170 3171 3171 3172 3176 3181 3184
3133 3132 3131 3131 3130 3130 3130 3130 3132 3135 3133 3134 3134 3135 3136 3137 3139 3140 3142 3145 3148 3149 3150 3152 3153 3154 3157 3161 3164 3166 3168 3169 3170 3172 3174 3173 3175 3167 3167 3168 3169 3172 3173 3176 3180
3131 3130 3128 3128 3128 3128 3128 3130 3133 3130 3132 3133 3133 3134 3135 3137 3138 3139 3141 3142 3145 3147 3148 3150 3151 3153 3156 3158 3159 3162 3164 3167 3172 3173 3172 3172 3172 3167 3167 3168 3167 3168 3170 3173 3177
3127 3126 3125 3125 3125 3125 3127 3129 3129 3127 3128 3129 3131 3132 3133 3134 3136 3138 3140 3141 3143 3145 3146 3148 3149 3150 3153 3155 3157 3158 3160 3162 3169 3171 3168 3169 3166 3164 3165 3166 3166 3167 3169 3172 3174
3124 3123 3122 3122 3122 3123 3125 3124 3123 3125 3126 3126 3128 3129 3131 3132 3135 3136 3138 3139 3140 3142 3145 3145 3146 3147 3149 3152 3155 3155 3156 3159 3159 3162 3164 3163 3162 3162 3161 3164 3165 3168 3164 3168 3171
3122 3120 3120 3119 3119 3120 3121 3121 3121 3122 3122 3123 3124 3126 3127 3129 3131 3133 3135 3135 3137 3139 3141 3143 3145 3145 3147 3148 3150 3151 3154 3155 3155 3161 3163 3157 3156 3156 3158 3159 3160 3161 3165 3162 3164
3119 3117 3116 3115 3116 3116 3116 3117 3118 3118 3120 3121 3121 3122 3124 3126 3127 3129 3130 3132 3134 3135 3137 3140 3142 3143 3144 3144 3146 3148 3148 3150 3151 3152 3153 3157 3150 3153 3154 3156 3156 3156 3156 3157 3159
3114 3114 3113 3113 3115 3112 3113 3114 3114 3114 3115 3117 3118 3119 3120 3122 3123 3125 3126 3127 3129 3131 3134 3136 3137 3138 3140 3141 3141 3141 3143 3145 3146 3149 3148 3147 3146 3148 3150 3152 3152 3152 3152 3153 3154
3108 3108 3109 3109 3108 3108 3110 3110 3110 3111 3112 3113 3114 3115 3116 3118 3121 3120 3121 3124 3125 3127 3128 3132 3132 3135 3136 3138 3137 3136 3137 3139 3141 3142 3141 3142 3143 3144 3147 3147 3148 3150 3150 3150 3153
3103 3103 3102 3102 3101 3102 3105 3105 3106 3107 3107 3108 3109 3110 3111 3112 3114 3115 3117 3119 3120 3121 3124 3126 3127 3128 3130 3131 3133 3133 3133 3135 3136 3136 3137 3137 3140 3140 3143 3145 3146 3147 3148 3149 3149
3096 3095 3096 3095 3095 3096 3098 3100 3100 3102 3104 3104 3105 3105 3106 3108 3109 3109 3112 3113 3114 3115 3118 3120 3122 3124 3126 3127 3128 3130 3131 3131 3131 3132 3133 3136 3136 3138 3141 3143 3144 3146 3147 3148 3149
3089 3089 3089 3088 3090 3091 3091 3092 3094 3095 3098 3099 3100 3101 3101 3102 3104 3105 3106 3107 3108 3110 3111 3113 3115 3119 3120 3122 3124 3124 3126 3127 3128 3128 3128 3130 3132 3134 3137 3139 3141 3143 3146 3147 3148
3080 3081 3080 3079 3080 3082 3084 3085 3086 3088 3091 3092 3094 3095 3096 3098 3098 3099 3099 3101 3103 3104 3106 3108 3110 3113 3114 3117 3119 3118 3120 3122 3122 3123 3125 3126 3129 3130 3131 3135 3139 3142 3144 3146 3146